This is the latest recevied weather packets stored in our database for station/object KB4MOX. If no packets are shown the sender has not sent any weather packets the latest 10 day(s).
| Time | Temp. | Humidity | Pressure | Rain* | Wind** | Luminosity | Snow |
|---|---|---|---|---|---|---|---|
| 1778171752 | 18.89° C | 98% | 1012 hPa | 11.94 mm | - | 41 W/m² | - |
| 1778171445 | 18.89° C | 98% | 1011.5 hPa | 19.81 mm | - | 69 W/m² | - |
| 1778171144 | 19.44° C | 98% | 1011.6 hPa | 31.75 mm | - | 95 W/m² | - |
| 1778170842 | 20° C | 97% | 1011.4 hPa | 37.85 mm | - | 53 W/m² | - |
| 1778170538 | 20.56° C | 98% | 1011.1 hPa | 18.03 mm | - | 47 W/m² | - |
| 1778170235 | 20.56° C | 98% | 1011 hPa | 4.83 mm | - | 37 W/m² | - |
| 1778169931 | 20.56° C | 98% | 1011 hPa | 4.83 mm | - | 62 W/m² | - |
| 1778169627 | 20.56° C | 98% | 1011 hPa | 4.83 mm | - | 70 W/m² | - |
| 1778169322 | 20.56° C | 98% | 1011 hPa | 3.05 mm | - | 64 W/m² | - |
| 1778169020 | 20.56° C | 98% | 1011.2 hPa | 3.05 mm | - | 73 W/m² | - |
| 1778168717 | 20.56° C | 98% | 1011 hPa | 3.05 mm | - | 62 W/m² | - |
| 1778168414 | 20.56° C | 98% | 1011.1 hPa | 3.05 mm | - | 63 W/m² | - |
| 1778168110 | 20.56° C | 98% | 1011.3 hPa | 4.83 mm | - | 55 W/m² | - |
| 1778167806 | 20.56° C | 98% | 1011.4 hPa | 3.05 mm | - | 70 W/m² | - |
| 1778167502 | 20.56° C | 98% | 1011.5 hPa | 4.32 mm | - | 53 W/m² | - |
| 1778167199 | 20.56° C | 98% | 1011.5 hPa | 7.87 mm | - | 55 W/m² | - |
| 1778166895 | 20.56° C | 98% | 1011.6 hPa | 13.72 mm | - | 45 W/m² | - |
| 1778166592 | 20.56° C | 98% | 1011.5 hPa | 18.03 mm | - | 42 W/m² | - |
| 1778166289 | 20.56° C | 98% | 1011.2 hPa | 11.94 mm | - | 32 W/m² | - |
| 1778165985 | 20.56° C | 98% | 1011.2 hPa | 4.83 mm | - | 32 W/m² | - |
| 1778165681 | 20.56° C | 98% | 1010.9 hPa | 3.05 mm | - | 48 W/m² | - |
| 1778165378 | 20.56° C | 98% | 1011.1 hPa | 4.32 mm | - | 28 W/m² | - |
| 1778165075 | 20° C | 98% | 1010.6 hPa | 4.83 mm | - | 53 W/m² | - |
| 1778164772 | 20° C | 98% | 1010.6 hPa | 4.83 mm | - | 36 W/m² | - |
| 1778164470 | 20° C | 98% | 1010.7 hPa | 4.83 mm | - | 28 W/m² | - |
* Rain latest hour (hover to see other rain measurements)
** Current wind speed in m/s (hover to see current wind gust speed)